Location: Auckland
(36.8670°S, 174.7670°E)
Time: 23:19:48
(UTC+12:00)

deb Explorer IX - Visible Passes

Search period start: 20 July 2019 00:00
Search period end: 30 July 2019 00:00
Orbit: 539 x 1112 km, 38.8° (Epoch: 19 July)

Date Brightness Start Highest point End Pass type
(mag) Time Alt. Az. Time Alt. Az. Time Alt. Az.
20 Jul ? 17:45:56 10° W 17:53:25 80° S 18:00:31 10° E visible
20 Jul ? 19:33:46 10° WSW 19:41:00 62° NNW 19:43:11 42° NNE visible
20 Jul ? 21:22:40 10° W 21:24:36 16° WNW 21:24:36 16° WNW visible
21 Jul ? 19:11:40 10° WSW 19:18:57 61° NNW 19:22:59 25° NE visible
21 Jul ? 21:00:33 10° W 21:04:24 20° NW 21:04:24 20° NW visible
22 Jul ? 18:49:34 10° WSW 18:56:52 61° NNW 19:02:56 13° NE visible
22 Jul ? 20:38:27 10° W 20:43:30 21° NW 20:44:22 20° NNW visible
23 Jul ? 18:27:29 10° WSW 18:34:47 60° NNW 18:41:40 10° NE visible
23 Jul ? 20:16:20 10° W 20:21:27 21° NW 20:24:32 15° N visible
24 Jul ? 18:05:24 10° WSW 18:12:42 59° NNW 18:19:41 10° NE visible
24 Jul ? 19:54:15 10° W 19:59:23 21° NW 20:04:15 10° N visible
25 Jul ? 17:43:21 10° WSW 17:50:36 59° NNW 17:57:40 10° NE visible
25 Jul ? 19:32:10 10° W 19:37:19 21° NW 19:42:14 10° N visible
26 Jul ? 19:10:07 10° W 19:15:14 20° NW 19:20:12 10° N visible
27 Jul ? 18:48:04 10° W 18:53:09 20° NW 18:58:08 10° N visible
28 Jul ? 18:26:03 10° W 18:31:04 20° NW 18:36:02 10° N visible
29 Jul ? 18:04:02 10° W 18:08:59 19° NW 18:13:54 10° N visible
